Location: Unspecified
(38.9820°N, 94.4650°W)
Time: 18:10:29
(UTC-05:00)

Okean 3 - Visible Passes

Search period start: 29 June 2015 00:00
Search period end: 09 July 2015 00:00
Orbit: 579 x 606 km, 82.5° (Epoch: 28 June)

Date Brightness Start Highest point End Pass type
(mag) Time Alt. Az. Time Alt. Az. Time Alt. Az.
29 Jun 5.5 00:08:23 10° NNE 00:10:50 19° ENE 00:10:50 19° ENE visible
29 Jun 5.2 01:45:05 10° NNW 01:47:26 24° WNW 01:47:26 24° WNW visible
30 Jun 5.0 00:16:56 10° NNE 00:19:49 27° NE 00:19:49 27° NE visible
30 Jun 5.7 01:54:42 10° NW 01:56:25 17° WNW 01:56:25 17° WNW visible
01 Jul 4.5 00:25:43 10° N 00:28:49 38° NE 00:28:49 38° NE visible
01 Jul 6.1 02:04:50 10° WNW 02:05:25 11° WNW 02:05:25 11° WNW visible
02 Jul 4.2 00:34:39 10° N 00:37:49 49° NNE 00:37:49 49° NNE visible
03 Jul 4.3 00:43:45 10° NNW 00:46:50 47° NNW 00:46:50 47° NNW visible
03 Jul 5.7 23:17:15 10° NE 23:19:16 14° ENE 23:19:16 14° ENE visible
04 Jul 4.8 00:52:58 10° NNW 00:55:52 35° NW 00:55:52 35° NW visible
04 Jul 5.2 23:25:26 10° NNE 23:28:18 21° ENE 23:28:18 21° ENE visible
05 Jul 5.3 01:02:21 10° NNW 01:04:55 24° WNW 01:04:55 24° WNW visible
05 Jul 4.7 23:34:03 10° NNE 23:37:21 31° ENE 23:37:21 31° ENE visible
06 Jul 5.7 01:12:01 10° NW 01:13:58 17° WNW 01:13:58 17° WNW visible
06 Jul 4.1 23:42:51 10° N 23:46:25 46° NE 23:46:25 46° NE visible
07 Jul 6.1 01:22:24 10° WNW 01:23:01 11° WNW 01:23:01 11° WNW visible
07 Jul 3.7 23:51:49 10° N 23:55:30 65° NNE 23:55:30 65° NNE visible
